Location: Bakov nad Jizerou
(50.4784°N, 14.9394°E)
Time: 14:08:22
(UTC+00:00)

FALCON 9 DEB - Visible Passes

Search period start: 22 October 2021 00:00
Search period end: 01 November 2021 00:00
Orbit: 348 x 358 km, 53.0° (Epoch: 21 October)

Date Brightness Start Highest point End Pass type
(mag) Time Alt. Az. Time Alt. Az. Time Alt. Az.
25 Oct 5.1 17:01:57 10° SSE 17:02:45 11° SE 17:02:45 11° SE visible
26 Oct 4.1 17:26:30 10° SSW 17:28:35 25° SSE 17:28:35 25° SSE visible
27 Oct 5.1 16:19:19 10° SSE 16:20:36 12° SE 16:21:54 10° ESE visible
27 Oct 4.1 17:52:24 10° SW 17:54:15 34° SW 17:54:15 34° SW visible
28 Oct 3.9 16:44:01 10° SSW 16:46:37 29° SE 16:48:10 18° E visible
28 Oct 5.5 18:18:43 10° W 18:19:45 20° W 18:19:45 20° W visible
29 Oct 2.7 17:09:50 10° WSW 17:12:46 67° SSE 17:13:33 42° E visible
30 Oct 3.0 17:36:04 10° W 17:38:49 64° NW 17:38:49 64° NW visible
31 Oct 2.7 16:27:02 10° WSW 16:29:58 71° SSE 16:32:24 14° ENE visible
31 Oct 4.9 18:02:23 10° W 18:03:58 27° WNW 18:03:58 27° WNW visible
